Date,TemperatureHighF,TemperatureAvgF,TemperatureLowF,DewpointHighF,DewpointAvgF,DewpointLowF,HumidityHigh,HumidityAvg,HumidityLow,PressureMaxIn,PressureMinIn,WindSpeedMaxMPH,WindSpeedAvgMPH,GustSpeedMaxMPH,PrecipitationSumIn
2013-1-1,83.2,80.4,78.1,76.5,75.3,73.9,91,84,78,30.04,29.90,13,9,18,0.05
2013-1-2,85.2,82.1,78.8,76.4,75.2,74.1,89,80,73,30.00,29.92,17,8,24,0.00
2013-1-3,86.7,81.2,77.1,79.0,75.9,73.4,91,84,77,30.04,29.95,17,5,24,0.07
2013-1-4,86.5,80.9,77.0,78.1,75.3,73.2,92,83,76,30.11,30.00,20,8,27,0.14
2013-1-5,85.5,81.4,77.8,77.9,75.7,73.1,90,83,74,30.09,30.00,12,6,20,0.00
2013-1-6,82.3,80.2,77.8,76.9,75.6,72.6,93,86,78,30.07,29.97,17,8,25,0.05
2013-1-7,81.4,80.7,80.1,76.4,75.9,75.5,88,85,83,30.00,29.96,13,7,18,0.00
2013-1-8,85.1,81.0,77.5,79.7,76.5,74.1,91,87,81,30.01,29.92,16,10,24,0.07
2013-1-9,84.8,81.7,80.1,79.7,78.0,76.4,92,89,83,30.01,29.90,20,12,28,0.00
2013-1-10,82.9,80.9,77.6,78.9,77.6,75.0,94,90,85,30.04,29.94,21,13,28,0.11
2013-1-11,85.4,81.7,79.5,78.4,76.6,75.4,92,85,78,30.04,29.95,18,9,25,0.00
2013-1-12,83.7,80.8,79.3,77.1,75.6,74.4,89,84,78,29.99,29.92,18,9,25,0.00
2013-1-13,83.3,81.2,79.8,76.3,74.8,72.9,88,81,76,29.97,29.87,18,12,25,0.00
2013-1-14,84.7,81.5,79.4,76.4,75.1,74.0,86,81,74,30.02,29.94,14,10,23,0.00
2013-1-15,82.3,79.5,77.2,78.3,75.4,72.8,93,87,81,30.00,29.92,22,8,28,0.35
2013-1-16,84.8,81.4,78.7,76.3,74.4,73.0,87,79,73,30.01,29.90,8,5,18,0.00
2013-1-17,86.7,79.7,71.4,78.5,72.7,64.5,91,79,70,30.19,29.99,22,11,35,0.01
2013-1-18,77.2,72.8,68.9,65.8,62.3,59.5,80,70,61,30.26,30.13,18,13,31,0.00
2013-1-19,76.2,72.5,68.5,66.9,62.9,59.4,79,72,66,30.20,30.06,16,9,23,0.00
2013-1-20,81.8,75.3,69.9,70.2,66.7,63.5,88,75,60,30.14,30.00,13,7,20,0.04
2013-1-21,84.2,78.1,71.0,74.4,70.4,67.3,90,78,68,30.10,30.00,9,6,16,0.00
2013-1-22,84.0,77.2,73.4,76.2,72.1,69.6,91,84,74,30.13,30.01,10,5,16,2.84
2013-1-23,74.3,73.2,71.9,72.5,71.3,70.1,96,94,89,30.19,30.07,10,5,16,0.86
2013-1-24,75.5,72.8,71.1,73.9,71.0,69.3,98,94,89,30.19,30.11,12,7,20,0.08
2013-1-25,79.9,73.6,70.2,76.7,71.4,69.0,96,93,85,30.15,30.06,10,6,20,0.49
2013-1-26,77.7,74.7,72.0,76.4,73.5,71.2,98,96,90,30.11,30.02,16,6,24,0.61
2013-1-27,79.9,77.6,74.1,76.9,75.1,73.2,97,92,86,30.12,30.02,10,6,23,1.72
2013-1-28,83.5,80.3,76.9,78.1,76.7,75.0,95,89,83,30.11,30.02,12,6,17,0.07
2013-1-29,83.8,80.9,79.4,77.8,76.7,74.7,92,87,80,30.05,29.93,18,12,23,0.00
2013-1-30,83.1,81.2,79.4,77.3,76.1,74.5,91,85,78,29.96,29.86,21,12,27,0.00
2013-1-31,89.1,82.8,78.8,81.0,77.1,73.9,93,83,75,30.10,29.93,12,5,16,0.00
2013-2-1,80.3,77.8,76.5,75.1,73.9,73.0,92,88,82,30.14,30.05,10,7,20,0.73
2013-2-2,82.3,77.4,75.6,77.7,73.8,72.4,94,89,84,30.12,30.01,20,5,24,0.15
2013-2-3,81.4,77.3,74.0,78.9,74.6,72.5,98,91,85,30.11,30.00,18,8,31,0.86
2013-2-4,80.9,76.9,74.3,77.3,73.9,71.9,96,90,83,30.04,29.91,13,5,18,0.32
2013-2-5,83.2,79.7,76.6,76.9,75.6,73.8,93,88,80,29.98,29.91,9,6,15,0.00
2013-2-6,84.7,82.3,79.7,77.7,76.9,76.4,90,84,78,30.03,29.93,12,7,16,0.00
2013-2-7,84.1,81.0,79.1,78.1,76.8,74.9,93,87,81,29.99,29.90,15,11,20,0.00
2013-2-8,84.1,82.2,79.4,77.2,76.0,74.4,92,82,79,30.04,29.93,10,6,15,0.00
2013-2-9,84.6,81.0,78.0,75.7,74.0,72.4,89,80,71,30.08,29.99,12,5,17,0.00
2013-2-10,83.7,80.7,78.4,76.4,74.5,72.4,88,81,76,30.08,29.97,18,11,24,0.00
2013-2-11,83.7,81.3,79.6,78.3,76.9,75.7,90,87,80,30.04,29.95,20,14,28,0.00
2013-2-12,83.3,81.0,79.6,77.7,76.7,75.7,91,87,81,30.02,29.90,17,14,23,0.00
2013-2-13,83.3,81.2,79.7,77.1,76.0,74.9,91,84,77,29.92,29.83,20,13,25,0.00
2013-2-14,86.7,82.4,79.4,79.1,77.0,74.9,93,84,77,29.95,29.84,12,5,16,0.00
2013-2-15,89.9,83.3,78.5,81.0,76.9,74.7,92,81,65,29.99,29.88,8,4,15,0.00
2013-2-16,83.9,79.9,74.7,76.2,70.6,57.5,91,75,51,30.16,29.91,17,10,32,0.08
2013-2-17,81.7,77.1,69.7,63.1,59.9,55.2,63,56,46,30.23,30.12,18,10,32,0.00
2013-2-18,80.8,77.3,74.3,71.2,65.3,59.5,81,67,57,30.13,29.99,15,10,22,0.00
2013-2-19,84.4,79.2,77.0,77.2,74.0,71.3,91,84,78,30.04,29.95,14,8,20,5.73
2013-2-20,84.7,81.9,77.4,77.9,76.2,74.2,92,83,77,30.03,29.91,18,8,24,0.10
2013-2-21,83.6,80.9,77.4,77.7,76.7,74.9,94,87,81,29.95,29.85,20,13,29,0.01
2013-2-22,83.4,81.1,79.4,77.7,76.5,75.9,91,86,80,29.96,29.85,20,15,28,0.00
2013-2-23,83.5,81.3,79.6,77.7,76.7,76.0,91,86,80,29.92,29.83,22,17,29,0.00
2013-2-24,83.5,81.5,79.7,78.0,76.8,76.0,90,86,82,29.91,29.78,17,13,22,0.00
2013-2-25,83.9,81.1,79.4,78.8,77.4,75.9,95,89,83,29.83,29.64,21,13,28,0.00
2013-2-26,88.7,82.6,79.1,82.2,79.6,78.0,98,91,80,29.89,29.71,8,3,12,0.00
2013-2-27,88.9,83.3,79.0,82.0,79.2,77.4,96,88,78,29.94,29.84,13,4,16,0.00
2013-2-28,85.8,82.5,79.4,78.1,76.4,74.8,90,82,77,30.00,29.87,8,4,12,0.00
2013-3-1,80.6,76.4,74.9,76.4,72.4,67.0,93,88,75,30.01,29.88,17,11,27,0.22
2013-3-2,79.7,75.7,70.2,62.7,56.3,50.7,71,51,44,30.22,30.10,20,12,32,0.00
2013-3-3,79.4,76.5,73.6,59.4,56.4,52.3,61,50,42,30.24,30.11,12,5,20,0.00
2013-3-4,80.0,74.2,68.7,64.9,60.7,57.7,75,63,55,30.18,30.03,12,7,18,0.00
2013-3-5,80.0,77.3,74.6,66.0,64.1,61.1,68,64,57,30.08,29.98,13,8,20,0.00
2013-3-6,85.5,79.5,73.4,75.0,67.1,62.7,81,66,50,30.17,30.04,12,5,16,0.00
2013-3-7,85.0,79.2,74.3,72.2,66.5,64.0,80,65,56,30.18,30.07,8,4,13,0.00
2013-3-8,82.5,78.6,76.4,73.3,68.4,63.8,82,71,64,30.12,30.02,13,6,20,0.02
2013-3-9,82.2,78.6,75.0,68.6,64.8,62.7,73,63,53,30.08,29.95,17,7,23,0.00
2013-3-10,81.7,79.7,77.3,76.7,74.4,68.0,90,84,72,29.96,29.81,20,13,26,0.00
2013-3-11,84.9,81.2,79.3,78.8,77.4,76.2,94,88,82,29.92,29.79,18,10,25,0.00
2013-3-12,80.1,78.1,75.4,78.3,75.2,72.0,95,91,88,30.05,29.88,14,10,23,0.01
2013-3-13,77.8,75.7,73.1,72.3,70.0,66.3,90,83,74,30.13,30.01,14,9,24,0.00
2013-3-14,82.0,77.0,72.7,69.6,65.8,62.8,79,69,57,30.18,30.07,15,11,24,0.00
2013-3-15,83.5,75.9,71.9,66.8,63.9,60.7,77,67,57,30.18,30.08,15,9,22,0.00
2013-3-16,82.1,79.7,76.9,72.0,67.7,65.1,81,67,62,30.07,29.95,10,7,15,0.00
2013-3-17,82.4,80.1,77.2,78.1,75.8,71.5,94,87,81,29.99,29.85,15,10,20,0.00
2013-3-18,83.3,81.1,79.5,78.7,77.1,75.6,94,88,80,29.93,29.81,16,12,23,0.00
2013-3-19,87.3,82.6,79.2,80.4,78.3,76.7,94,87,78,29.93,29.82,16,7,22,0.00
2013-3-20,85.5,82.7,79.9,79.0,77.9,77.0,92,85,80,29.91,29.80,12,7,17,0.00
2013-3-21,85.1,81.6,79.2,79.5,77.9,76.7,94,89,82,29.92,29.79,13,7,20,0.00
2013-3-22,81.8,80.2,79.3,79.1,77.8,76.7,94,92,89,29.86,29.78,16,12,22,0.00
2013-3-23,83.3,81.4,79.9,79.0,78.0,76.8,94,89,82,29.84,29.70,21,14,26,0.00
2013-3-24,87.4,83.1,79.5,82.8,80.5,78.3,98,92,85,29.77,29.63,12,5,17,0.00
2013-3-25,89.2,84.3,80.2,82.1,79.0,76.5,95,84,71,29.96,29.72,12,5,25,0.00
2013-3-26,80.8,78.4,75.8,76.3,72.3,67.3,87,82,75,30.16,29.93,17,12,28,0.04
2013-3-27,84.9,78.1,73.6,70.7,67.4,65.3,80,70,57,30.20,30.09,16,9,24,0.00
2013-3-28,80.9,77.2,74.3,71.9,68.3,65.7,84,74,64,30.17,30.08,12,6,20,0.02
2013-3-29,83.8,79.0,74.6,70.3,66.0,63.9,78,65,52,30.17,30.06,9,5,15,0.00
2013-3-30,83.6,79.3,76.7,74.0,71.2,69.6,81,76,70,30.09,30.00,12,6,20,0.02
2013-3-31,84.8,80.8,77.7,77.6,75.4,71.6,93,84,77,30.02,29.92,12,7,15,0.00
2013-4-1,85.3,81.8,79.5,80.3,78.6,77.2,94,90,84,29.99,29.90,13,9,18,0.00
2013-4-2,84.8,81.7,79.6,79.8,78.3,77.1,94,90,84,29.99,29.90,17,11,24,0.00
2013-4-3,83.4,81.3,79.6,78.6,78.0,77.1,94,90,83,29.92,29.80,22,14,31,0.00
2013-4-4,86.5,82.3,80.0,80.4,79.2,78.2,95,90,82,29.99,29.82,12,7,17,0.00
2013-4-5,83.3,79.1,76.9,80.0,75.7,73.4,94,89,83,30.06,29.89,15,7,26,1.01
2013-4-6,83.7,78.0,72.3,73.1,66.3,60.3,89,68,46,30.10,29.95,15,8,24,0.00
2013-4-7,83.3,79.8,76.1,70.2,67.2,63.7,79,66,53,30.02,29.90,9,6,15,0.00
2013-4-8,83.2,81.5,80.5,78.2,77.4,76.9,90,88,83,29.93,29.86,14,10,21,0.00
2013-4-9,83.4,81.6,79.8,78.3,77.3,76.0,92,87,81,29.93,29.81,20,14,27,0.00
2013-4-10,83.4,81.6,80.1,79.2,78.0,76.6,94,89,83,29.88,29.74,20,15,27,0.00
2013-4-11,82.0,80.8,80.1,80.1,78.9,77.9,96,94,92,29.78,29.70,20,15,26,0.00
2013-4-12,88.8,83.4,80.3,83.6,80.7,79.1,98,92,81,29.84,29.74,16,6,22,0.00
2013-4-13,84.4,82.3,80.4,81.4,79.7,77.9,99,92,86,29.88,29.76,14,9,20,0.00
2013-4-14,83.6,81.8,80.1,79.7,78.5,77.3,95,90,83,29.83,29.72,20,14,27,0.00
2013-4-15,85.0,82.4,80.3,80.9,79.9,78.8,97,92,87,29.88,29.76,14,9,20,0.00
2013-4-16,84.2,81.7,81.0,80.9,79.9,79.1,96,94,90,29.93,29.84,16,11,22,0.00
2013-4-17,84.0,84.0,84.0,80.7,80.7,80.7,90,90,90,29.93,29.93,15,15,0,0.00
2013-4-18,84.0,84.0,84.0,80.7,80.7,80.7,90,90,90,29.93,29.93,15,15,0,0.00
2013-4-19,83.9,82.1,81.1,77.8,77.1,76.3,89,85,79,29.93,29.58,14,9,26,0.00
2013-4-20,87.2,82.7,78.0,79.2,77.4,73.8,89,84,77,30.02,29.89,13,6,18,0.00
2013-4-21,87.5,81.1,75.5,77.3,74.8,72.0,89,82,64,30.03,29.91,13,7,18,0.00
2013-4-22,86.2,82.7,80.5,77.5,76.5,75.2,87,82,73,30.01,29.89,14,7,19,0.00
2013-4-23,86.7,82.6,80.5,77.8,76.4,75.2,88,82,73,30.00,29.89,14,8,18,0.00
2013-4-24,86.1,82.8,80.9,77.7,76.0,74.5,84,80,74,30.01,29.90,14,10,19,0.00
2013-4-25,87.2,83.1,80.9,78.1,75.9,74.3,85,79,71,30.08,29.98,16,9,20,0.00
2013-4-26,85.1,82.1,78.5,76.7,74.4,71.2,85,78,71,30.11,30.02,18,9,24,0.00
2013-4-27,85.5,81.8,78.7,75.9,74.0,72.0,85,78,66,30.06,29.94,20,8,23,0.00
2013-4-28,84.8,82.2,80.2,76.3,74.5,72.7,84,78,71,29.95,29.83,18,9,24,0.00
2013-4-29,85.3,82.7,81.1,76.7,75.3,73.7,85,79,71,29.88,29.78,20,13,23,0.00
2013-4-30,84.7,82.7,81.6,78.6,77.1,74.8,89,83,76,29.86,29.75,20,12,25,0.00
2013-5-1,86.1,83.5,81.8,80.0,79.0,77.6,93,87,80,29.83,29.72,17,10,23,0.00
2013-5-2,88.6,83.4,78.0,80.8,78.6,72.4,93,86,73,29.87,29.72,16,5,30,0.00
2013-5-3,89.9,81.2,75.8,76.3,73.8,71.2,91,79,57,29.97,29.83,14,7,22,0.00
2013-5-4,85.5,79.5,74.6,73.2,69.0,66.4,84,71,55,30.02,29.88,17,10,25,0.00
2013-5-5,85.6,80.9,75.2,75.7,72.9,69.1,86,77,70,29.97,29.89,12,6,20,0.00
2013-5-6,84.6,82.5,81.0,75.6,74.1,71.6,82,76,71,30.04,29.94,14,8,16,0.00
2013-5-7,84.9,82.2,80.6,75.7,74.4,72.3,83,77,72,30.05,29.95,17,9,21,0.00
2013-5-8,85.9,82.3,80.4,74.6,72.6,70.6,81,73,61,30.08,29.98,14,8,19,0.00
2013-5-9,85.1,82.9,80.4,77.6,75.2,71.1,86,78,71,30.05,29.96,14,9,18,0.00
2013-5-10,86.0,83.3,81.8,79.0,77.6,75.8,88,83,78,30.01,29.89,22,14,26,0.00
2013-5-11,84.7,83.3,82.2,79.9,78.0,76.4,87,84,82,29.96,29.86,22,15,26,0.00
2013-5-12,85.5,83.1,81.8,78.3,76.8,75.3,85,81,77,30.00,29.89,20,12,25,0.00
2013-5-13,87.4,83.4,81.1,77.3,75.5,73.7,83,77,71,30.08,29.93,15,10,23,0.00
2013-5-14,87.8,83.5,80.5,77.4,75.3,73.0,86,77,66,30.09,30.03,12,6,18,0.00
2013-5-15,87.1,83.2,80.5,76.4,75.2,74.0,85,77,66,30.08,29.97,14,7,18,0.00
2013-5-16,84.8,82.6,80.6,75.9,74.4,72.6,84,77,68,30.00,29.91,13,8,16,0.00
2013-5-17,86.4,83.1,80.9,78.3,75.8,73.0,83,79,73,29.98,29.90,18,10,23,0.00
2013-5-18,86.8,83.7,81.9,79.1,77.4,75.6,86,81,77,29.98,29.89,18,9,23,0.00
2013-5-19,85.7,83.7,82.2,79.1,77.6,75.7,86,82,78,29.94,29.85,20,14,25,0.00
2013-5-20,85.1,83.4,82.3,78.4,77.2,75.9,87,82,77,29.92,29.82,22,14,28,0.00
2013-5-21,85.5,83.6,82.3,78.5,77.7,76.3,87,82,75,29.88,29.76,25,15,28,0.00
2013-5-22,86.4,83.9,82.6,79.9,78.6,77.4,89,84,80,29.88,29.76,21,14,26,0.00
2013-5-23,86.6,83.9,82.7,80.4,79.0,78.1,88,85,81,29.94,29.85,20,11,23,0.00
2013-5-24,86.9,83.5,78.4,79.2,78.2,75.9,93,84,77,30.00,29.89,20,10,32,0.27
2013-5-25,86.0,83.2,77.6,79.1,77.5,73.4,90,83,78,30.03,29.94,18,11,32,0.09
2013-5-26,86.9,83.7,80.1,78.9,77.4,75.5,88,81,74,30.01,29.92,18,12,25,0.00
2013-5-27,83.1,81.3,76.5,78.4,76.8,72.8,93,86,81,29.99,29.88,25,8,41,0.69
2013-5-28,80.4,78.4,74.6,77.9,75.5,72.8,96,91,86,29.95,29.85,22,9,31,1.11
2013-5-29,83.8,81.6,78.4,78.7,76.8,74.6,92,85,79,29.89,29.81,20,12,24,0.00
2013-5-30,85.3,83.6,82.5,80.1,79.0,78.3,89,86,82,29.87,29.77,20,14,28,0.00
2013-5-31,87.0,83.9,82.7,80.3,79.1,78.2,89,85,80,29.86,29.77,17,11,25,0.00
2013-6-1,85.6,83.9,82.8,80.3,79.6,78.6,91,87,83,29.85,29.74,18,12,24,0.00
2013-6-2,85.7,82.4,79.5,81.5,79.2,76.0,92,90,86,29.85,29.78,13,5,21,0.00
2013-6-3,84.6,80.9,76.1,77.5,76.1,73.5,93,85,77,29.87,29.75,24,5,38,0.02
2013-6-4,89.5,83.6,79.9,80.3,78.2,75.8,91,84,68,29.85,29.76,13,5,19,0.00
2013-6-5,89.9,84.6,81.6,81.1,80.0,78.3,91,86,70,29.82,29.72,10,6,14,0.01
2013-6-6,90.2,84.2,79.7,80.9,78.5,75.7,91,83,67,29.84,29.74,13,6,15,0.00
2013-6-7,87.4,84.3,82.3,82.1,80.7,79.7,93,89,83,29.89,29.78,15,7,18,0.06
2013-6-8,86.1,84.7,83.4,80.6,79.5,78.1,87,84,81,29.93,29.83,18,14,25,0.00
2013-6-9,86.2,84.3,82.9,80.0,78.5,77.6,87,83,78,29.95,29.87,18,12,24,0.00
2013-6-10,86.4,84.7,82.9,79.9,78.7,77.2,88,82,78,29.96,29.89,18,11,24,0.00
2013-6-11,86.5,84.4,82.4,80.4,79.0,77.7,87,84,79,30.02,29.92,17,12,24,0.01
2013-6-12,87.3,84.5,82.9,80.6,78.9,77.8,87,83,78,30.03,29.96,17,11,21,0.01
2013-6-13,89.3,84.5,80.9,80.5,78.5,75.7,89,82,72,30.00,29.93,18,10,23,0.00
2013-6-14,87.7,84.6,82.6,79.3,78.0,76.3,85,81,74,29.97,29.88,14,8,18,0.00
2013-6-15,87.4,84.7,82.8,80.1,78.2,77.1,85,81,75,30.00,29.91,17,10,23,0.00
2013-6-16,85.9,80.9,76.2,80.0,77.2,73.8,96,89,81,29.99,29.91,20,7,26,1.26
2013-6-17,82.0,79.0,75.8,79.1,75.7,72.5,96,90,75,29.94,29.86,32,14,44,1.59
2013-6-18,82.8,81.1,75.0,78.9,77.3,71.9,95,88,83,29.95,29.85,29,14,43,0.79
2013-6-19,85.3,82.6,78.3,79.5,78.1,74.5,93,86,82,29.94,29.84,29,15,36,0.19
2013-6-20,85.2,81.9,76.6,80.0,77.5,74.3,93,87,81,29.98,29.88,29,14,42,0.33
2013-6-21,86.9,84.1,80.9,80.5,78.7,74.8,90,84,79,29.99,29.91,18,11,30,0.01
2013-6-22,86.3,83.8,79.8,79.6,78.1,76.3,90,83,76,29.99,29.92,17,10,26,0.13
2013-6-23,86.3,83.9,82.2,79.3,77.7,75.8,86,82,77,30.01,29.92,20,13,25,0.00
2013-6-24,88.2,84.4,82.3,80.1,78.2,76.4,86,82,75,30.04,29.97,15,8,23,0.00
2013-6-25,86.3,82.4,77.3,79.5,77.4,74.5,94,85,78,30.06,29.94,22,6,31,0.44
2013-6-26,87.4,84.0,82.1,79.4,77.9,76.3,88,82,73,30.00,29.93,12,6,16,0.00
2013-6-27,85.7,83.4,81.9,79.2,77.7,76.3,87,83,79,29.98,29.89,10,5,15,0.13
2013-6-28,87.7,84.6,81.8,78.5,77.1,76.1,83,78,72,29.96,29.86,9,5,12,0.01
2013-6-29,88.0,84.6,80.9,78.4,77.1,75.8,85,79,70,29.92,29.81,12,5,14,0.00
2013-6-30,88.6,85.1,81.9,78.9,77.1,75.4,84,77,67,29.89,29.78,10,4,14,0.00
2013-7-1,89.5,85.0,81.6,80.6,78.5,76.6,88,81,67,29.91,29.81,13,5,16,0.00
2013-7-2,84.4,81.9,74.3,79.1,77.5,72.1,94,87,82,29.95,29.86,16,6,25,0.69
2013-7-3,85.8,83.2,75.4,80.7,78.5,72.7,95,86,81,29.95,29.85,23,13,30,1.03
2013-7-4,84.2,81.4,74.3,79.3,77.5,72.8,95,88,82,30.00,29.88,23,11,30,1.18
2013-7-5,86.1,84.2,82.8,80.0,78.7,77.1,87,84,78,29.97,29.87,20,13,28,0.00
2013-7-6,86.0,84.3,83.3,79.5,78.2,76.9,86,82,78,29.95,29.87,22,15,29,0.00
2013-7-7,87.2,84.3,82.8,78.9,77.4,75.5,86,80,74,29.97,29.87,22,12,29,0.00
2013-7-8,88.4,84.5,82.4,78.9,77.6,76.7,86,80,72,30.04,29.92,12,5,18,0.00
2013-7-9,89.0,84.7,82.3,80.0,78.2,76.6,85,81,75,30.06,29.97,13,7,18,0.00
2013-7-10,83.7,81.4,78.3,78.7,76.6,73.6,92,86,77,30.03,29.94,16,5,25,1.55
2013-7-11,85.2,79.7,73.9,77.9,74.9,72.1,94,86,74,30.04,29.88,16,6,28,0.23
2013-7-12,88.5,83.8,77.8,79.8,77.9,74.6,92,83,75,29.94,29.85,13,5,19,0.00
2013-7-13,86.4,80.0,74.3,79.3,76.3,72.5,96,89,78,29.98,29.85,16,4,25,2.17
2013-7-14,83.2,79.4,75.2,79.4,76.2,73.3,96,90,84,29.96,29.86,31,10,38,0.94
2013-7-15,85.7,83.7,81.8,79.7,78.5,76.8,89,85,80,29.93,29.87,17,12,23,0.01
2013-7-16,87.2,84.0,82.5,79.2,78.3,76.9,87,83,76,29.99,29.89,14,8,25,0.00
2013-7-17,88.3,84.4,81.6,80.6,78.6,77.0,89,83,74,30.00,29.91,17,8,22,0.00
2013-7-18,85.9,82.4,78.0,80.0,77.8,74.3,93,86,81,30.01,29.93,14,7,24,0.49
2013-7-19,87.6,84.2,80.1,80.5,78.5,76.6,92,83,77,30.00,29.93,16,11,22,0.17
2013-7-20,86.6,84.3,80.2,80.9,79.1,76.4,91,85,78,29.98,29.89,17,11,31,0.11
2013-7-21,87.1,84.6,79.1,79.5,78.4,73.8,89,82,77,30.02,29.92,21,14,32,0.06
2013-7-22,86.9,84.7,82.1,80.1,78.4,73.8,88,81,76,30.04,29.95,17,11,24,0.06
2013-7-23,86.2,83.7,79.4,80.1,78.3,75.4,90,84,77,30.02,29.92,20,12,32,0.04
2013-7-24,88.1,85.0,83.1,80.6,79.0,77.6,87,82,78,29.98,29.92,16,11,21,0.00
2013-7-25,87.9,85.2,83.4,80.6,79.2,77.7,87,82,78,30.07,29.93,15,9,20,0.00
2013-7-26,88.6,85.2,83.4,80.1,78.7,77.7,86,81,75,30.07,29.99,16,8,21,0.00
2013-7-27,88.5,85.0,82.9,79.6,78.2,76.7,86,80,74,30.03,29.95,13,7,15,0.00
2013-7-28,88.5,85.3,83.2,79.7,78.2,76.8,85,80,74,30.01,29.92,14,7,18,0.00
2013-7-29,88.6,85.4,83.4,80.0,78.3,76.7,86,80,74,30.08,29.94,17,9,23,0.22
2013-7-30,88.7,85.5,83.6,80.6,78.6,77.3,86,80,73,30.08,29.99,17,8,23,0.00
2013-7-31,89.9,85.1,81.3,80.7,78.6,77.1,89,81,71,30.05,29.95,7,3,13,0.00
2013-8-1,89.6,84.6,79.4,79.3,77.5,74.5,90,80,68,29.99,29.90,10,5,14,0.00
2013-8-2,87.4,85.1,83.6,79.5,77.9,76.4,83,79,73,30.02,29.91,20,10,25,0.00
2013-8-3,87.1,85.2,82.2,80.5,78.5,75.4,84,80,76,30.03,29.94,17,13,24,0.02
2013-8-4,87.9,85.5,84.6,80.9,79.8,78.3,87,83,76,30.03,29.94,18,13,26,0.02
2013-8-5,88.3,85.6,83.0,80.7,79.3,76.5,88,82,76,30.03,29.95,14,8,21,0.00
2013-8-6,90.1,85.9,83.9,81.0,79.6,78.2,87,82,74,30.01,29.94,14,7,19,0.02
2013-8-7,89.2,85.5,83.1,79.5,78.2,77.5,85,79,72,29.98,29.88,9,4,13,0.00
2013-8-8,88.4,84.2,77.8,79.6,77.7,74.0,92,81,69,29.92,29.83,16,4,23,0.96
2013-8-9,88.6,85.3,82.7,79.1,78.0,75.6,85,79,71,29.93,29.82,15,7,20,0.04
2013-8-10,87.7,85.4,82.7,80.2,78.3,75.6,85,80,73,29.97,29.88,15,10,20,0.00
2013-8-11,85.8,84.1,80.9,79.8,78.6,76.7,89,84,79,29.98,29.89,23,11,29,0.06
2013-8-12,86.8,83.2,77.3,79.3,77.4,72.2,93,83,73,30.00,29.88,23,8,33,0.76
2013-8-13,88.9,83.9,77.3,80.3,77.8,73.1,90,82,73,29.96,29.84,12,4,15,0.14
2013-8-14,88.2,81.8,76.2,78.5,76.9,73.3,93,85,72,29.91,29.80,16,5,24,0.03
2013-8-15,82.8,79.6,75.8,78.5,76.6,73.3,95,91,84,29.92,29.81,12,4,13,0.48
2013-8-16,86.9,83.5,78.8,80.1,78.6,75.2,92,85,75,29.93,29.83,20,9,26,0.73
2013-8-17,87.2,85.3,83.9,79.4,78.2,77.0,85,80,73,29.95,29.87,21,14,26,0.00
2013-8-18,88.1,85.2,83.4,79.2,78.2,77.1,84,80,74,29.96,29.90,13,8,19,0.00
2013-8-19,88.5,85.1,82.7,79.9,78.1,75.7,85,80,75,29.94,29.84,13,8,16,0.00
2013-8-20,88.3,85.5,83.7,80.4,78.9,77.3,85,81,75,29.97,29.86,15,8,20,0.00
2013-8-21,89.4,85.8,83.4,80.4,79.2,78.2,87,81,74,29.97,29.88,10,6,15,0.00
2013-8-22,90.2,86.0,82.7,80.8,79.2,77.7,87,80,72,29.95,29.82,15,6,19,0.00
2013-8-23,84.4,82.4,77.3,79.2,77.3,74.5,93,85,79,29.87,29.77,24,11,37,0.55
2013-8-24,85.0,82.5,75.5,79.9,77.9,73.6,96,86,80,29.93,29.79,32,17,43,3.63
2013-8-25,86.6,84.8,83.4,80.0,78.9,78.0,87,83,78,29.99,29.90,25,18,32,0.00
2013-8-26,88.1,85.1,83.4,79.5,78.3,77.3,84,80,74,30.02,29.92,23,10,28,0.00
2013-8-27,90.0,85.4,82.6,79.6,77.9,76.5,85,79,70,29.98,29.89,12,5,15,0.00
2013-8-28,88.7,83.4,78.1,79.4,76.8,73.6,91,81,67,30.02,29.90,24,6,33,0.28
2013-8-29,87.1,82.1,78.1,79.0,76.6,74.5,91,83,75,30.00,29.90,15,4,25,0.07
2013-8-30,85.8,81.9,78.0,79.2,77.6,74.3,95,87,79,29.94,29.89,18,7,36,0.79
2013-8-31,83.2,81.6,77.3,78.4,76.9,73.8,92,86,82,29.92,29.88,10,4,16,0.02
2013-9-1,84.7,84.6,84.5,79.9,79.1,78.5,86,84,82,29.90,29.89,16,11,20,0.35
2013-9-2,86.4,81.1,75.8,79.9,76.3,73.6,95,86,71,29.95,29.83,25,5,36,0.29
2013-9-3,82.5,79.6,76.7,77.9,75.8,74.3,95,88,80,29.95,29.82,13,3,15,0.34
2013-9-4,85.1,82.3,77.9,79.5,77.9,75.7,93,87,78,29.95,29.85,13,5,19,0.06
2013-9-5,88.3,84.9,82.5,79.7,78.3,76.7,88,81,74,29.96,29.88,13,7,19,0.00
2013-9-6,88.5,85.1,82.7,80.2,79.0,77.4,89,82,76,29.95,29.83,13,5,20,0.00
2013-9-7,88.5,84.3,78.9,80.9,79.0,75.7,92,84,75,29.94,29.81,10,4,19,0.24
2013-9-8,89.2,84.9,79.9,80.6,78.2,75.4,90,81,72,29.89,29.77,10,4,15,0.00
2013-9-9,87.0,83.4,79.5,79.3,78.1,75.7,91,84,76,29.88,29.78,15,7,26,0.24
2013-9-10,82.9,80.9,78.8,78.7,77.5,76.3,95,90,84,29.89,29.78,17,6,21,0.64
2013-9-11,84.1,80.0,75.4,80.2,77.1,73.9,96,91,84,29.86,29.77,20,7,24,1.57
2013-9-12,85.0,83.1,79.2,80.4,78.6,73.3,92,86,81,29.83,29.72,21,14,28,0.02
2013-9-13,84.8,83.3,81.3,79.7,78.6,75.4,91,86,81,29.79,29.68,16,10,21,0.06
2013-9-14,87.0,84.3,83.0,80.6,79.0,78.0,89,84,78,29.84,29.71,17,12,23,0.00
2013-9-15,86.4,83.1,77.9,79.6,78.3,76.7,96,86,77,29.87,29.77,24,8,30,0.59
2013-9-16,80.5,79.1,77.2,78.3,77.0,75.7,96,93,88,29.85,29.75,17,6,30,1.11
2013-9-17,82.3,78.9,77.3,78.9,76.8,75.5,97,93,81,29.81,29.70,17,7,24,1.10
2013-9-18,84.6,81.2,77.0,81.0,78.0,75.3,95,90,82,29.85,29.70,20,8,25,0.03
2013-9-19,85.3,84.2,83.7,81.0,80.0,78.0,90,87,82,29.88,29.77,25,16,32,0.00
2013-9-20,86.8,84.5,83.3,81.0,79.7,78.2,89,86,82,29.87,29.76,18,14,22,0.00
2013-9-21,86.7,84.3,80.8,81.2,79.7,75.3,91,86,79,29.80,29.67,18,8,28,0.00
2013-9-22,91.2,84.6,78.4,82.0,79.3,74.5,92,84,73,29.82,29.68,17,5,25,0.02
2013-9-23,90.0,84.8,78.7,82.7,79.6,75.5,91,85,74,29.87,29.77,13,5,15,0.00
2013-9-24,88.0,85.7,84.3,81.8,80.8,79.7,89,85,80,29.90,29.79,17,11,22,0.00
2013-9-25,87.9,85.6,84.3,82.3,80.7,79.3,89,86,82,29.89,29.79,18,12,22,0.00
2013-9-26,89.1,85.4,83.6,81.4,79.4,77.7,86,82,77,29.91,29.81,16,9,20,0.00
2013-9-27,88.6,85.5,83.5,81.2,79.4,78.2,86,82,76,29.93,29.84,13,7,18,0.00
2013-9-28,88.8,85.7,84.0,80.7,79.3,78.3,86,81,74,29.95,29.86,14,8,18,0.00
2013-9-29,89.2,85.5,82.2,80.5,78.7,77.3,86,80,71,29.96,29.84,9,4,13,0.00
2013-9-30,88.1,84.5,79.2,78.9,77.1,74.7,89,79,70,29.92,29.83,10,4,14,0.00
2013-10-1,88.7,85.1,83.2,78.5,76.6,75.4,81,76,68,29.93,29.83,9,5,14,0.00
2013-10-2,88.3,84.4,80.6,80.4,78.3,76.6,91,82,71,29.89,29.78,12,5,16,0.00
2013-10-3,87.6,82.9,75.4,79.3,77.9,73.2,95,85,74,29.97,29.80,16,6,23,0.50
2013-10-4,87.9,85.6,84.3,80.9,79.7,78.4,86,83,78,29.95,29.86,16,11,20,0.00
2013-10-5,88.3,85.5,82.2,80.9,79.6,77.6,87,83,77,29.92,29.83,22,9,29,0.00
2013-10-6,88.6,85.4,82.2,81.5,80.0,77.6,87,84,78,29.92,29.82,15,9,19,0.00
2013-10-7,86.6,82.6,79.7,80.2,77.7,75.4,92,86,73,29.96,29.84,22,5,25,0.01
2013-10-8,86.3,80.5,74.5,79.4,76.8,73.0,96,89,78,29.97,29.86,14,6,25,0.41
2013-10-9,83.7,80.9,75.9,79.0,76.7,74.1,95,87,78,30.02,29.87,18,7,28,0.65
2013-10-10,88.7,83.4,79.6,80.6,78.0,74.4,88,84,75,29.97,29.88,13,7,22,0.01
2013-10-11,89.0,84.9,83.1,80.5,78.7,77.2,86,82,75,29.95,29.85,15,8,20,0.00
2013-10-12,88.2,85.0,81.3,79.7,78.5,76.4,88,81,74,29.97,29.87,15,8,19,0.02
2013-10-13,89.9,85.3,81.5,79.5,77.6,75.6,88,78,68,29.99,29.88,13,6,21,0.03
2013-10-14,88.6,83.9,80.0,77.2,75.4,71.1,85,76,64,29.96,29.86,10,6,19,0.01
2013-10-15,88.0,83.5,79.6,78.6,76.5,74.4,87,80,70,29.94,29.85,9,5,16,0.00
2013-10-16,87.4,83.4,77.5,79.3,77.6,74.1,92,83,74,29.95,29.85,10,5,25,0.36
2013-10-17,88.4,84.7,79.5,79.8,77.0,74.3,87,78,71,29.97,29.85,12,6,19,0.00
2013-10-18,88.8,84.7,82.2,77.5,76.0,75.1,82,75,67,29.95,29.84,10,5,17,0.00
2013-10-19,88.3,84.9,82.9,80.5,78.7,76.8,86,82,76,29.94,29.83,14,7,19,0.00
2013-10-20,88.3,84.9,80.7,80.2,78.7,76.1,87,82,76,29.94,29.83,14,7,22,0.01
2013-10-21,87.0,84.8,82.4,79.8,78.3,76.5,87,81,74,29.94,29.84,16,10,23,0.00
2013-10-22,87.3,85.4,84.0,80.4,78.9,77.6,86,81,77,29.91,29.80,18,11,23,0.00
2013-10-23,87.8,85.2,83.3,80.4,79.4,76.5,89,83,75,29.90,29.79,15,8,21,0.01
2013-10-24,87.0,83.7,78.1,80.6,78.0,74.3,93,83,75,29.95,29.84,22,10,32,0.15
2013-10-25,85.2,80.4,74.6,78.1,76.5,72.2,95,88,76,30.02,29.90,24,8,36,1.16
2013-10-26,83.5,78.8,74.9,78.5,76.1,73.4,96,91,84,29.99,29.87,22,9,37,1.53
2013-10-27,83.3,79.7,74.9,78.0,76.1,73.1,96,89,79,29.95,29.85,35,8,37,1.50
2013-10-28,83.8,82.1,78.3,79.0,77.4,75.2,93,86,81,29.99,29.87,17,9,31,0.40
2013-10-29,85.1,82.6,76.8,80.0,78.4,74.3,94,87,83,30.05,29.91,17,7,29,0.36
2013-10-30,85.9,83.0,79.8,79.7,78.4,76.1,91,86,80,30.02,29.89,16,9,23,0.27
2013-10-31,86.7,83.4,78.0,80.3,78.9,75.2,94,87,80,29.98,29.85,20,7,25,0.40
2013-11-1,87.6,84.7,83.2,80.6,79.3,77.7,88,84,80,29.93,29.82,14,10,18,0.00
2013-11-2,87.5,84.5,82.6,79.7,78.1,76.7,88,81,74,29.94,29.83,15,6,18,0.00
2013-11-3,82.6,77.0,71.6,77.9,74.4,70.4,97,92,84,29.98,29.87,12,5,19,1.94
2013-11-4,85.6,78.9,74.6,75.1,73.7,72.4,95,85,68,29.99,29.89,10,5,14,0.00
2013-11-5,88.1,80.6,76.7,76.9,75.1,72.9,94,84,65,29.97,29.85,9,5,15,0.00
2013-11-6,86.3,81.1,77.7,79.2,77.0,75.1,94,88,74,29.94,29.83,13,8,20,0.29
2013-11-7,83.8,80.7,77.9,78.7,77.5,75.4,94,90,83,29.99,29.86,14,8,20,0.11
2013-11-8,80.0,77.5,73.9,78.1,75.6,72.4,96,94,91,29.96,29.85,16,7,21,1.14
2013-11-9,81.8,78.5,76.4,78.6,76.5,74.9,96,94,90,29.98,29.88,12,6,18,0.57
2013-11-10,80.7,76.8,74.5,78.0,75.5,73.6,98,96,91,30.03,29.90,17,4,25,3.18
2013-11-11,84.4,78.6,74.6,79.8,76.2,73.5,97,93,84,30.01,29.89,13,5,21,1.52
2013-11-12,87.0,81.8,77.8,79.8,77.6,74.9,95,87,76,30.00,29.88,12,4,21,0.08
2013-11-13,83.4,79.0,75.5,77.8,76.1,73.3,95,91,80,29.98,29.88,15,7,21,0.19
2013-11-14,82.0,78.8,74.9,78.4,76.1,72.4,96,91,84,29.98,29.86,15,6,29,1.61
2013-11-15,82.2,79.8,74.9,78.1,76.5,72.9,96,90,84,29.97,29.83,22,7,31,1.44
2013-11-16,83.6,80.4,75.6,79.1,77.1,74.4,97,90,82,29.98,29.86,10,5,15,0.19
2013-11-17,86.4,83.7,81.8,79.6,77.8,76.2,88,83,78,29.98,29.86,12,6,16,0.00
2013-11-18,88.1,83.6,78.6,77.9,76.5,73.4,89,80,69,29.95,29.85,6,2,15,0.07
2013-11-19,87.2,82.3,74.4,78.7,76.6,72.2,95,83,75,29.92,29.82,12,4,26,0.97
2013-11-20,86.6,83.3,80.6,78.2,77.0,75.1,85,81,74,29.96,29.87,16,5,21,0.01
2013-11-21,85.7,83.2,78.7,79.2,77.0,74.5,89,82,76,30.01,29.92,15,7,19,0.06
2013-11-22,84.0,81.1,76.5,77.7,76.7,73.7,93,87,80,30.03,29.91,23,7,30,0.67
2013-11-23,84.9,80.8,76.3,79.0,75.8,73.2,95,85,75,30.00,29.89,15,5,20,0.37
2013-11-24,84.3,79.8,75.8,77.5,75.2,72.8,96,86,71,30.01,29.92,10,6,16,0.23
2013-11-25,84.0,79.0,74.9,76.9,75.0,72.5,96,88,75,30.02,29.89,14,2,20,0.48
2013-11-26,87.7,80.9,77.2,78.1,75.9,74.2,95,85,71,29.98,29.85,15,4,24,0.03
2013-11-27,78.0,74.4,71.0,74.4,66.2,61.9,92,76,62,30.19,29.93,25,17,39,0.03
2013-11-28,77.1,72.8,67.1,66.6,65.0,63.7,90,77,66,30.21,30.09,18,12,26,0.00
2013-11-29,77.0,73.1,70.0,67.6,65.6,63.4,83,77,71,30.20,30.10,20,15,30,0.00
2013-11-30,77.7,71.7,68.9,72.5,68.0,65.4,95,88,82,30.15,30.04,18,14,28,0.03
2013-12-1,80.2,75.3,71.9,73.8,72.1,70.1,96,90,80,30.09,29.98,15,10,23,0.00
2013-12-2,81.7,75.0,71.8,74.3,72.2,70.6,97,91,77,29.99,29.87,13,6,18,0.31
2013-12-3,83.8,79.3,73.9,77.9,75.2,72.3,97,88,78,29.93,29.80,22,8,26,0.07
2013-12-4,85.0,83.0,81.9,79.6,78.0,76.6,87,85,83,29.93,29.83,20,13,25,0.00
2013-12-5,84.7,82.9,82.0,78.0,76.9,75.6,86,82,78,30.00,29.90,20,15,24,0.00
2013-12-6,84.8,83.0,81.8,78.5,77.4,75.5,87,83,80,30.03,29.89,20,13,25,0.00
2013-12-7,85.0,82.1,76.2,78.5,76.3,73.4,93,83,77,30.08,29.97,24,8,29,0.33
2013-12-8,86.2,80.4,77.1,76.6,74.6,72.5,93,83,71,30.07,29.96,13,4,18,0.03
2013-12-9,85.1,81.7,77.7,76.8,75.1,73.0,92,81,73,30.04,29.94,9,4,14,0.03
2013-12-10,85.6,80.3,76.5,76.6,74.1,70.8,91,82,70,30.08,29.98,12,5,21,0.16
2013-12-11,79.2,76.3,74.8,75.2,74.3,73.6,97,93,87,30.05,29.99,16,9,23,1.10
2013-12-12,79.1,76.1,74.2,76.3,74.5,72.7,96,95,89,30.13,30.01,16,5,19,1.34
2013-12-13,83.8,79.4,74.0,76.8,75.2,72.8,97,87,77,30.01,29.90,18,10,23,1.36
2013-12-17,78.8,76.7,73.1,75.0,73.9,71.6,95,91,85,30.12,30.01,14,9,20,0.06
2013-12-18,79.5,75.4,72.9,74.7,72.7,71.1,95,92,84,30.14,30.03,16,10,24,0.42
2013-12-19,83.0,77.9,73.5,77.1,74.7,72.2,97,90,80,30.06,29.95,23,7,26,0.19
2013-12-20,84.1,81.1,77.3,77.3,75.7,74.1,91,84,78,30.00,29.90,24,10,31,0.05
2013-12-21,84.0,82.0,79.9,78.5,76.7,75.2,91,84,79,29.97,29.86,23,15,31,0.00
2013-12-22,83.9,82.6,81.8,77.7,76.9,76.0,86,83,78,29.99,29.86,23,17,30,0.00
2013-12-23,84.5,82.4,78.0,77.8,76.3,71.3,86,82,75,30.10,29.96,20,11,25,0.00
2013-12-24,85.5,81.3,77.7,77.0,74.5,72.2,89,80,72,30.14,30.00,16,7,23,0.01
2013-12-25,82.7,77.6,73.9,75.0,72.9,71.1,92,86,74,30.09,29.97,14,8,22,0.11
2013-12-26,81.8,77.2,73.1,75.6,72.3,69.4,95,86,72,30.07,29.95,13,7,19,0.05
2013-12-27,82.1,76.4,74.6,76.4,73.8,70.3,95,92,80,30.07,29.95,10,6,15,0.06
2013-12-28,81.4,76.4,73.4,75.0,73.3,71.6,95,90,80,30.06,29.93,13,6,20,0.00
2013-12-29,79.7,76.1,74.1,75.1,73.1,71.9,94,91,81,30.04,29.93,12,6,18,0.00
2013-12-30,84.3,80.1,75.6,77.0,75.6,73.2,95,86,77,30.04,29.94,18,5,30,0.18
2013-12-31,84.1,80.8,75.6,77.7,76.1,72.5,90,86,80,30.09,29.97,15,7,25,0.37
2014-1-1,84.4,80.9,76.2,77.0,75.3,71.7,91,83,76,30.06,29.92,18,6,26,0.05
2014-1-2,81.6,77.5,72.6,75.6,73.5,70.0,94,88,78,30.01,29.90,14,5,21,0.63